Location: Jodlow
(50.1500°N, 16.7500°E)
Time: 14:27:01
(UTC+02:00)

O/OREOS (USA 219) - Pass Details

Date: 02 March 2024
Orbit: 621 x 646 km, 72.0° (Epoch: 22 May)

Event Time Altitude Azimuth Distance (km) Brightness Sun altitude
Exits shadow 04:25:32 - 179° (S) 2,406 ? -21.2°
Reaches altitude 10° 04:26:32 10° 175° (S) 2,030 ? -21.1°
Maximum altitude 04:30:45 37° 108° (ESE) 999 ? -20.4°
Drops below altitude 10° 04:34:59 10° 41° (NE) 2,053 ? -19.7°
Sets 04:37:24 0° 34° (NNE) 2,969 ? -19.4°
